Regional Weather Roundup
Issued by NWS

Home | Current Version | Previous Version | Graphics & Text | Print | Product List | Glossary On
Versions: 1 2 3 4 5 6 7 8 9 10 11 12 13 14 15 16 17 18 19 20 21 22 23 24 25 26 27
000
ASUS45 KBOI 270310
RWRID

IDAHO REGIONAL WEATHER ROUNDUP
NATIONAL WEATHER SERVICE BOISE ID
900 PM MDT TUE JUL 26 2016

NOTE: "FAIR" INDICATES FEW OR NO CLOUDS BELOW 12000 FEET
WITH NO SIGNIFICANT WEATHER AND/OR OBSTRUCTIONS TO VISIBILITY

IDZ012-014-270400-
SOUTHWEST IDAHO


CITY           SKY/WX    TMP DP  RH WIND       PRES   REMARKS
BOISE          CLEAR     93  38  14 NW6       29.91S
CALDWELL       CLEAR     89  57  33 N3        29.88S
MOUNTAIN HOME  CLEAR     94  40  15 N8        29.92R HX  90
$$

IDZ016-017-270400-
SOUTHCENTRAL IDAHO


CITY           SKY/WX    TMP DP  RH WIND       PRES   REMARKS
BURLEY         CLEAR     72  51  47 SW8       30.00S
JEROME         CLEAR     78  47  33 W7        30.01R
TWIN FALLS     CLEAR     82  40  22 VRB7      30.02R
$$

IDZ019>023-270400-
SOUTHEAST IDAHO


CITY           SKY/WX    TMP DP  RH WIND       PRES   REMARKS
IDAHO FALLS    CLEAR     76  43  30 NE8       30.08R
POCATELLO      CLEAR     79  40  24 NE9       30.05R
REXBURG        CLOUDY    73  46  38 E6        30.09R
$$

IDZ006-010-011-018-031-032-270400-
CENTRAL IDAHO MOUNTAINS


CITY           SKY/WX    TMP DP  RH WIND       PRES   REMARKS
MCCALL         CLEAR     80  43  26 N7        30.11R
HAILEY         PTCLDY    77  41  27 N6        30.11R
STANLEY          N/A     74  38  27 CALM      30.21S
SALMON         PTCLDY    68  50  52 CALM      30.08R
CHALLIS        PTCLDY    74  39  28 W6        30.13R
$$

IDZ002-004-006-007-026-270400-
NORTHERN IDAHO


CITY           SKY/WX    TMP DP  RH WIND       PRES   REMARKS
LEWISTON       CLEAR     92  50  23 N8        29.90R
LOWELL           N/A     74  58  57 N3        29.92R
COEUR D`ALENE  CLEAR     81  52  36 N17       29.97R
MULLAN PASS    CLEAR     66  47  50 NE3       30.23S
$$




USA.gov is the U.S. government's official web portal to all federal, state and local government web resources and services.